Weather History for Lexington, KY

Change the Weather History Date:

Thursday, September 12, 2013

  Actual Average Record
Temperature  
Mean Temperature 75 °F 70 °F  
Max Temperature 84 °F 80 °F 97 °F (1939)
Min Temperature 66 °F 59 °F 41 °F (1940)
Degree Days  
Heating Degree Days 0 1  
Month to date heating degree days 0 4  
Since 1 July heating degree days 3 6  
Cooling Degree Days 10 5  
Month to date cooling degree days 121 83  
Year to date cooling degree days 1159 1100  
Growing Degree Days 26 (Base 50)    
Moisture  
Dew Point 68 °F    
Average Humidity 78    
Maximum Humidity 93    
Minimum Humidity 62    
Precipitation  
Precipitation 0.14 in 0.11 in 2.31 in (1920)
Month to date precipitation 0.14 1.17  
Year to date precipitation 43.78 32.84  
Snow  
Snow 0.00 in 0.00 in - ()
Month to date snowfall 0.0 0.0  
Since 1 July snowfall 0.0 0.0  
Since 1 September snowfall 0.0 0.0  
Snow Depth 0.00 in    
Sea Level Pressure  
Sea Level Pressure 29.99 in    
Wind  
Wind Speed 7 mph (West)    
Max Wind Speed 20 mph    
Max Gust Speed 25 mph    
Visibility 8 miles    
Events Rain , Thunderstorm    
T = Trace of Precipitation, MM = Missing Value Source: NWS Daily Summary

Daily Weather History Graph

Daily Weather History Graph

Search for Another Location

Airport:

Trip Planner

Search our weather history database for the weather conditions in past years. The results will help you decide how hot, cold, wet, or windy it might be!

Date:

Astronomy

Sep. 12, 2013 Rise Set
Actual Time 7:17 AM EDT 7:50 PM EDT
Civil Twilight 6:51 AM EDT 8:17 PM EDT
Nautical Twilight 6:20 AM EDT 8:48 PM EDT
Astronomical Twilight 5:48 AM EDT 9:20 PM EDT
Moon 2:38 PM EDT (9/12) No Moon Set
Length of Visible Light 13h 25m
Length of Day
12h 32m
Waxing Crescent, 50% of the Moon is Illuminated
Sep 12
Waxing Crescent
Sep 12
First Quarter
Sep 19
Full
Sep 26
Last Quarter
Oct 4
New

Hourly Weather History & Observations

Time (EDT) Temp. Heat Index Dew Point Humidity Pressure Visibility Wind Dir Wind Speed Gust Speed Precip Events Conditions
12:54 AM 71.1 °F - 66.9 °F 87% 30.05 in 10.0 mi SW 6.9 mph - N/A   Clear
1:54 AM 70.0 °F - 66.9 °F 90% 30.04 in 9.0 mi SW 5.8 mph - N/A   Clear
2:54 AM 69.1 °F - 66.9 °F 93% 30.04 in 8.0 mi South 4.6 mph - N/A   Clear
3:54 AM 69.1 °F - 66.0 °F 90% 30.03 in 9.0 mi SSW 4.6 mph - N/A   Clear
4:54 AM 68.0 °F - 66.0 °F 93% 30.03 in 7.0 mi SSW 5.8 mph - N/A   Clear
5:54 AM 68.0 °F - 66.0 °F 93% 30.02 in 7.0 mi SSW 6.9 mph - N/A   Clear
6:54 AM 68.0 °F - 66.0 °F 93% 30.02 in 6.0 mi South 5.8 mph - N/A   Clear
7:54 AM 68.0 °F - 66.9 °F 96% 30.04 in 4.0 mi SSW 5.8 mph - N/A   Clear
8:54 AM 72.0 °F - 69.1 °F 91% 30.02 in 5.0 mi SW 6.9 mph - N/A   Clear
9:02 AM 72.0 °F - 69.1 °F 91% 30.05 in 6.0 mi SSW 9.2 mph - N/A   Partly Cloudy
9:54 AM 75.0 °F - 70.0 °F 84% 30.02 in 7.0 mi SW 5.8 mph - N/A   Clear
10:54 AM 79.0 °F - 71.1 °F 77% 30.02 in 9.0 mi West 10.4 mph - N/A   Clear
11:54 AM 82.9 °F 88.0 °F 72.0 °F 69% 30.01 in 9.0 mi West 9.2 mph - N/A   Scattered Clouds
12:40 PM 82.0 °F 85.9 °F 70.0 °F 67% 30.03 in 8.0 mi WNW 8.1 mph - N/A   Mostly Cloudy
12:54 PM 81.0 °F 84.9 °F 71.1 °F 72% 30.01 in 8.0 mi WNW 10.4 mph - N/A   Overcast
1:05 PM 82.0 °F 86.3 °F 71.1 °F 69% 30.03 in 7.0 mi WNW 8.1 mph - N/A   Mostly Cloudy
1:18 PM 82.0 °F 86.3 °F 71.1 °F 69% 30.02 in 7.0 mi NNW 9.2 mph - N/A Thunderstorm Mostly Cloudy
1:40 PM 79.0 °F - 71.1 °F 77% 30.02 in 2.5 mi NW 13.8 mph - 0.00 in Rain , Thunderstorm Heavy Thunderstorms and Rain
1:46 PM 75.0 °F - 70.0 °F 84% 30.02 in 0.8 mi West 10.4 mph 25.3 mph 0.10 in Rain , Thunderstorm Heavy Thunderstorms and Rain
1:52 PM 75.2 °F - 71.6 °F 89% 30.01 in 1.2 mi WSW 6.9 mph 25.3 mph 0.14 in Rain , Thunderstorm Light Thunderstorms and Rain
1:54 PM 75.0 °F - 70.0 °F 84% 29.98 in 3.0 mi West 5.8 mph - 0.14 in Rain , Thunderstorm Light Thunderstorms and Rain
2:51 PM 78.8 °F - 69.8 °F 74% 29.99 in 10.0 mi NW 10.4 mph - 0.00 in   Partly Cloudy
2:54 PM 78.1 °F - 69.1 °F 74% 29.96 in 10.0 mi NW 8.1 mph - 0.00 in   Scattered Clouds
3:54 PM 77.0 °F - 69.1 °F 76% 29.90 in 10.0 mi WSW 8.1 mph - 0.00 in   Partly Cloudy
4:54 PM 79.0 °F - 66.9 °F 66% 29.90 in 10.0 mi WNW 15.0 mph - N/A   Clear
5:54 PM 80.1 °F 82.3 °F 66.9 °F 64% 29.91 in 10.0 mi NW 10.4 mph - N/A   Partly Cloudy
6:54 PM 78.1 °F - 64.0 °F 62% 29.92 in 10.0 mi NW 8.1 mph - N/A   Clear
7:54 PM 73.9 °F - 64.0 °F 71% 29.92 in 10.0 mi NW 3.5 mph - N/A   Clear
8:54 PM 71.1 °F - 64.9 °F 81% 29.92 in 10.0 mi WNW 3.5 mph - N/A   Clear
9:54 PM 70.0 °F - 63.0 °F 78% 29.92 in 10.0 mi West 4.6 mph - N/A   Clear
10:54 PM 68.0 °F - 62.1 °F 81% 29.93 in 10.0 mi WSW 3.5 mph - N/A   Clear
11:54 PM 66.9 °F - 64.0 °F 90% 29.92 in 10.0 mi WSW 3.5 mph - N/A   Clear